Weather History for Lowell, ID

Change the Weather History Date:

Wednesday, December 4, 2013

  Actual Average Record
Temperature  
Mean Temperature 21 °F -  
Max Temperature 30 °F 38 °F 48 °F (2007)
Min Temperature 14 °F 30 °F 14 °F (2013)
Degree Days  
Heating Degree Days 44    
Moisture  
Dew Point 11 °F    
Average Humidity 76    
Maximum Humidity 88    
Minimum Humidity 39    
Precipitation  
Precipitation 0.00 in - - ()
Sea Level Pressure  
Sea Level Pressure 30.41 in    
Wind  
Wind Speed 2 mph (West)    
Max Wind Speed 9 mph    
Max Gust Speed -    
Averages and records for this station are not official NWS values.
T = Trace of Precipitation, MM = Missing Value Source: NWS Daily Summary

Daily Weather History Graph

Daily Weather History Graph

Search for Another Location

Airport:

Trip Planner

Search our weather history database for the weather conditions in past years. The results will help you decide how hot, cold, wet, or windy it might be!

Date:

Astronomy

Dec. 04, 2013 Rise Set
Actual Time 8:08 AM MST 4:57 PM MST
Civil Twilight 7:33 AM MST 5:31 PM MST
Nautical Twilight 6:56 AM MST 6:09 PM MST
Astronomical Twilight 6:20 AM MST 6:45 PM MST
Moon 9:37 AM MST (12/4) 7:15 PM MST (12/4)
Length of Visible Light 9h 57m
Length of Day
8h 49m
Waxing Crescent, 5% of the Moon is Illuminated
Dec 4
Waxing Crescent
Dec 9
First Quarter
Dec 17
Full
Dec 25
Last Quarter
Jan 1
New

Hourly Weather History & Observations

Time (MST) Temp. Windchill Dew Point Humidity Pressure Visibility Wind Dir Wind Speed Gust Speed Precip Events Conditions
12:52 AM 17.1 °F 11.7 °F 12.9 °F 84% 30.34 in - NW 3.5 mph - N/A   Unknown
1:52 AM 16.0 °F - 12.9 °F 88% 30.35 in - Calm Calm - N/A   Unknown
2:52 AM 16.0 °F 10.4 °F 12.0 °F 84% 30.35 in - NW 3.5 mph - N/A   Unknown
3:52 AM 15.1 °F - 10.9 °F 84% 30.38 in - Calm Calm - N/A   Unknown
4:52 AM 16.0 °F - 10.9 °F 81% 30.38 in - Calm Calm - N/A   Unknown
5:52 AM 16.0 °F - 12.0 °F 84% 30.39 in - Calm Calm - N/A   Unknown
6:52 AM 16.0 °F 10.4 °F 12.0 °F 84% 30.41 in - NW 3.5 mph - N/A   Unknown
7:52 AM 15.1 °F - 12.0 °F 88% 30.43 in - Calm Calm - N/A   Unknown
8:52 AM 16.0 °F - 12.0 °F 84% 30.44 in - Calm Calm - N/A   Unknown
9:52 AM 17.1 °F - 12.0 °F 81% 30.45 in - Calm Calm - N/A   Unknown
10:52 AM 21.9 °F - 10.0 °F 60% 30.44 in - Calm Calm - N/A   Unknown
11:52 AM 23.0 °F 14.7 °F 7.0 °F 50% 30.42 in - SSW 6.9 mph - N/A   Unknown
12:52 PM 25.0 °F 15.5 °F 6.1 °F 45% 30.39 in - SSW 9.2 mph - N/A   Unknown
1:52 PM 27.0 °F 20.5 °F 5.0 °F 39% 30.38 in - SW 5.8 mph - N/A   Unknown
2:52 PM 28.0 °F - 7.0 °F 41% 30.37 in - Calm Calm - N/A   Unknown
3:52 PM 21.9 °F - 12.9 °F 68% 30.38 in - Calm Calm - N/A   Unknown
4:52 PM 19.9 °F - 12.9 °F 74% 30.39 in - Calm Calm - N/A   Unknown
5:52 PM 17.1 °F - 12.9 °F 84% 30.42 in - Calm Calm - N/A   Unknown
6:52 PM 18.0 °F - 12.9 °F 81% 30.43 in - Calm Calm - N/A   Unknown
7:52 PM 17.1 °F - 12.9 °F 84% 30.44 in - Calm Calm - N/A   Unknown
8:52 PM 15.1 °F - 12.0 °F 88% 30.46 in - Calm Calm - N/A   Unknown
9:52 PM 14.0 °F - 10.9 °F 88% 30.48 in - Calm Calm - N/A   Unknown
10:52 PM 14.0 °F - 10.9 °F 88% 30.48 in - Calm Calm - N/A   Unknown
11:52 PM 14.0 °F - 10.9 °F 88% 30.48 in - Calm Calm - N/A   Unknown